SL-8 DEB, 1479

Orbit data source: Space-Track

SL-8 DEB, 1479 is space debris in LEO originally from a launch on Mon, 15 Mar 1965 UTC launched from the Tyuratam Missile And Space Complex (TTMTR). Debris objects in space refer to the collection of defunct objects orbiting the Earth. Examples of debris include non-operational satellites, rocket bodies, and fragments generated from explosions, collisions, or faulty payload assembly.

Loading next visibility...
Identifier
1479, 1965-020BD
Orbit
LEO
Country
Flag of CISCIS
Related business
Manufacturer
Unknown
Mission
Spacecraft
Bus & Motor
Unknown
Mass
Unknown
Launch date (UTC)
1965-03-15 (61 years ago)
Launch vehicle
Unknown
Launch site
Tyuratam Missile And Space Complex (TTMTR)
Object type
Payload
Rocket body
Debris
Shape & HBR
Unknown shape, 0.1 m
Radar Cross Section
Small (<0.1 m²)

Expand to show TLE details & history
Last TLE update: 5 hours ago

TLE from 5 hours ago
0 SL-8 DEB
1  1479U 65020BD  26036.14678949 -.00000016  00000-0  16390-3 0  9999
2  1479  56.0376 306.1037 0736051 244.6123 107.6856 12.59952586779721
Epoch: 2026-02-05T03:31Z
TLE epoch observation values (Epoch: 2026-02-05T03:31:22.611Z)
Latitude
-0.00004°
Longitude
117.95626°
Altitude
1,635.632 km
Speed
6.958 km/s
True Right ascension
20h 24m 24s
True Declination
0° 00' 00"
Sunlit
Object was in daylight at epoch
Visualization orbit readout
Latitude
Unknown
Longitude
Unknown
Altitude
Unknown
Speed
Unknown
Apparent Right ascension
Unknown
Apparent Declination
Unknown
Sunlit
N/A
Visualization observer readout
Local Sidereal Time
10:31:27
Azimuth
Unknown
Elevation
Unknown
Doppler factor
Unknown
Orbital elements
Apogee altitude
1,997.164 km
Perigee altitude
848.763 km
Semi-major axis
7,801.101 km
Eccentricity
0.07361
Inclination
56.0376°
RAAN
306.1037°
Arg. of periapsis
244.6123°
True anomaly
115.47875°
Mean anomaly
107.6856°
Eccentric anomaly
111.60653°
Mean motion
3.14999 °/min
Orbital period
114.29 mins
BSTAR
0.0001639
Loading maneuver chart data...
Computing Atmospheric mass density...

Documentation

Showing up to 5 results
|